C/2024 J3 ( ATLAS )

Japanese version
Home page
Updated on June 4, 2024

---------------------------------------------------------------------

* Profile

Discovery Date May 6, 2024
Magnitude 17.6 mag
Discoverer Asteroid Terrestrial-Impact Last Alert System (ATLAS) search program

* Orbital Elements

Epoch 2026 Nov. 16.0 TT = JDT 2461360.5                                         
T 2026 Nov. 24.59579 TT                                 Rudenko                 
q   3.8615853            (2000.0)            P               Q                  
z  +0.0000209      Peri.   74.11028     +0.30541809     -0.19918018             
 +/-0.0000000      Node   285.97328     -0.55161920     +0.76007432             
e   0.9999193      Incl.   75.59217     +0.77616754     +0.61855823             
>From 70 observations 2024 May 6-28, mean residual 0".5.                         

* Finding Charts

* Magnitudes Graph

        m1 = 4.5 + 5 log d + 10.0 log r

---------------------------------------------------------------------

The orbital elements are published on M.P.E.C. 2024-K118.
The charts are made with StellaNavigator Ver.11 (AstroArts).
The magnitudes graphs are made with Comet for Windows.

---------------------------------------------------------------------

Copyright(C) Seiichi Yoshida (comet@aerith.net). All rights reserved.